GEFSCGP_500_meanwind_294.txt.gz
Wind_Speed
4 5 6 5 4 4 3 3 3 3 3 4 5 5 6 7 7 7 7 7 7 8 8 8 7 7 7 7 7 6 6 6 5 4 4 4 3 2 2 2 2 1 1 2
6 6 6 5 4 3 2 2 2 3 3 3 3 3 4 5 6 6 6 7 7 7 8 8 8 8 8 7 7 7 7 6 5 4 3 3 3 2 1 1 1 1 1 2
8 8 6 5 4 3 2 1 1 2 3 3 3 3 3 3 4 5 5 6 7 7 8 8 8 7 8 7 8 8 6 5 5 4 3 3 2 2 2 2 1 1 1 1
10 9 8 7 5 4 2 1 1 1 2 3 2 2 3 2 3 3 4 5 5 6 7 7 7 7 7 7 7 7 6 5 5 5 4 3 2 2 2 2 1 1 1 1
11 10 10 9 7 6 4 3 2 1 1 3 3 3 3 2 2 3 4 4 5 6 7 7 7 7 7 7 7 6 6 5 5 5 5 4 3 3 3 2 1 1 1 1
13 12 12 11 9 7 5 4 3 2 1 2 3 2 4 4 4 4 4 4 5 6 7 7 8 7 6 6 7 6 6 6 6 5 5 5 4 3 3 3 2 2 2 2
15 14 14 12 10 9 6 4 4 4 4 4 4 2 3 4 4 4 4 5 6 7 7 8 8 8 7 7 7 6 6 6 7 6 5 5 4 4 3 3 3 2 3 3
16 16 15 14 12 11 9 8 7 6 6 6 6 5 4 4 4 5 5 5 6 7 7 8 8 8 9 8 8 7 7 7 7 7 6 5 4 4 4 4 4 4 4 5
17 17 16 16 14 13 12 11 10 9 8 6 7 7 6 6 6 6 7 7 7 7 8 8 8 8 9 9 8 8 8 8 8 7 7 7 6 6 5 5 5 6 6 6
18 18 18 17 16 16 14 13 12 10 10 9 8 8 8 7 7 8 7 8 8 9 9 8 9 9 9 9 9 9 8 9 9 9 8 8 8 6 6 7 7 7 8 8
20 19 19 18 18 17 15 15 13 12 11 10 9 11 10 8 9 9 9 9 10 10 10 10 9 10 11 11 11 10 10 10 9 9 9 8 9 8 8 9 9 9 9 9
21 20 20 20 19 19 18 16 15 14 14 13 12 14 12 11 10 10 11 11 11 12 12 12 11 11 12 12 12 12 11 11 10 10 9 9 9 9 10 10 10 10 11 11
24 23 21 20 21 21 20 19 17 16 16 16 14 15 15 13 12 12 12 13 12 13 13 14 14 14 13 13 13 13 13 12 12 11 11 11 11 11 11 11 11 11 12 12
26 25 24 22 22 22 22 22 21 19 18 18 18 18 18 16 15 15 14 14 14 14 15 15 15 15 15 15 15 14 14 14 13 13 13 13 13 13 13 12 12 12 12 13
27 26 25 25 25 25 24 23 23 23 21 20 19 20 20 19 18 17 17 17 17 17 18 18 18 17 17 17 17 16 16 16 16 15 15 15 15 15 15 14 14 14 14 14
28 28 27 26 26 27 27 26 25 24 24 23 23 22 23 22 21 20 20 20 20 20 20 20 20 20 20 19 19 19 18 18 18 18 18 18 18 17 17 17 16 16 16 16
28 28 28 27 28 27 28 27 26 26 26 26 26 25 25 24 23 23 23 23 23 23 23 23 23 23 22 21 21 21 20 20 20 20 20 20 20 20 19 19 18 17 17 16
29 29 29 28 29 29 29 27 26 26 27 28 28 27 27 27 26 26 26 26 26 26 26 26 26 25 24 24 24 23 22 22 21 21 22 22 22 21 21 21 21 20 19 18
29 29 29 30 30 30 31 29 27 27 28 29 29 28 28 28 28 28 28 27 27 27 27 27 27 27 26 26 26 25 25 24 23 23 23 23 23 22 22 21 21 20 20 19
30 30 31 31 31 32 32 30 29 29 31 30 29 29 29 29 29 29 28 28 28 28 28 28 28 29 28 27 27 27 26 26 25 24 24 24 24 24 23 23 22 22 21 21
32 32 32 32 32 33 33 32 31 31 32 30 30 30 30 30 30 30 29 29 29 29 29 29 29 29 30 29 29 28 27 27 27 26 26 25 25 25 24 24 24 24 24 23
33 33 33 33 33 34 33 33 32 32 32 32 31 32 32 32 32 32 31 31 30 30 30 31 30 31 31 31 30 30 29 29 29 28 27 27 26 26 25 25 26 27 26 25
34 34 35 35 35 35 34 34 34 34 34 33 33 34 34 34 33 33 33 32 32 32 32 31 31 32 32 32 32 32 31 30 30 29 28 28 28 28 27 27 27 26 26 27
34 34 35 36 35 35 35 35 35 35 35 35 35 35 36 36 35 34 34 34 33 32 32 33 32 33 33 33 33 33 32 32 32 31 30 29 29 29 28 28 28 28 27 27
33 34 35 36 35 35 35 35 35 35 35 35 35 35 35 36 35 35 35 35 34 34 34 34 35 34 34 34 34 34 34 34 33 32 32 31 31 31 30 30 29 29 29 29
32 34 35 35 34 35 35 35 35 36 36 35 35 35 36 35 35 35 35 35 35 35 35 35 35 35 35 34 33 33 34 34 33 33 33 32 32 32 31 31 31 31 31 31

GEFSCGP_500_meanwind_300.txt.gz
Wind_Speed
4 4 4 3 2 2 1 1 2 3 5 5 7 7 8 8 9 10 10 10 10 10 11 12 12 11 10 10 10 9 8 8 8 8 8 6 6 6 5 5 4 4 4 4
4 3 4 4 3 2 2 2 4 3 4 5 6 7 8 8 9 9 9 9 10 10 10 11 12 11 11 10 10 9 8 8 8 9 9 8 7 5 5 4 4 4 4 4
4 4 4 6 5 3 2 3 3 3 3 4 6 7 8 9 9 10 10 10 10 10 11 11 12 11 11 10 10 9 9 9 8 9 9 9 8 6 5 5 5 4 4 4
7 7 7 7 7 4 3 3 1 2 2 3 5 7 8 8 9 9 10 10 10 10 10 11 11 11 10 10 10 9 10 10 9 8 8 9 8 7 6 6 6 5 5 5
8 9 9 9 7 6 5 3 2 2 3 3 5 7 7 7 9 9 9 10 10 10 10 11 11 11 11 11 10 9 10 10 10 9 9 9 9 8 8 7 7 7 6 6
8 10 10 9 8 8 5 3 4 5 4 4 6 8 8 7 8 9 9 9 10 10 10 11 12 12 12 11 11 10 10 10 11 11 10 9 9 9 8 8 7 7 7 7
10 12 10 10 9 9 7 4 3 6 5 5 6 8 10 9 9 9 9 9 10 10 11 12 12 11 12 11 12 11 10 10 11 11 11 10 10 10 9 9 8 8 8 8
11 14 13 13 11 11 7 5 5 6 6 7 7 10 10 11 11 9 10 10 11 11 11 11 12 11 12 12 12 11 11 11 11 11 11 11 10 10 10 9 9 9 9 8
13 13 13 14 13 12 10 8 7 7 8 10 9 9 10 11 11 11 11 11 11 11 11 11 12 12 12 12 12 12 12 11 12 11 11 12 11 11 10 10 10 10 10 10
16 16 15 14 13 12 11 10 9 9 10 9 10 11 10 12 14 14 14 13 12 12 12 12 12 13 13 13 14 13 13 13 13 13 13 13 12 11 11 11 11 11 11 11
17 18 16 16 16 15 15 12 11 12 11 9 11 14 13 11 14 16 16 15 13 13 13 13 13 14 14 15 15 14 14 14 13 13 13 13 13 12 11 11 11 11 11 11
19 17 18 17 16 17 16 15 14 13 13 12 13 16 14 13 16 16 16 15 15 15 15 15 15 15 15 15 15 16 16 15 14 14 14 13 13 13 13 13 12 12 12 12
21 20 19 17 16 18 18 17 15 15 14 14 15 18 18 17 17 17 16 16 17 17 17 17 17 17 17 17 17 17 17 17 15 14 14 14 15 15 15 14 13 13 13 12
23 23 22 20 18 18 18 17 16 16 17 17 17 19 21 21 19 17 18 18 17 18 19 20 19 19 19 19 19 18 18 19 18 17 16 16 16 16 16 16 15 14 14 14
25 24 24 22 21 20 20 20 18 19 20 21 20 20 21 21 19 20 20 19 19 20 21 22 22 21 20 21 21 20 21 20 20 20 18 18 17 17 17 17 17 16 16 16
26 26 25 24 22 22 22 22 21 22 23 23 23 24 24 25 23 24 23 22 21 22 23 23 23 23 23 23 23 22 22 22 22 21 20 20 19 19 18 18 18 18 18 18
27 27 26 24 24 25 26 24 23 24 25 24 24 26 26 27 26 26 25 25 25 24 25 25 25 25 25 25 24 24 24 24 23 23 22 22 21 20 20 20 20 20 20 20
28 28 27 26 25 28 26 26 26 27 26 26 27 29 28 29 28 28 27 27 26 27 27 27 27 26 26 26 25 25 25 25 25 24 23 23 22 22 21 21 21 21 21 21
27 28 28 27 27 27 26 26 26 26 28 27 29 29 29 30 31 31 29 28 28 28 28 28 28 27 27 26 26 26 26 26 27 26 25 24 24 24 23 22 22 22 22 22
28 29 29 29 27 27 28 28 27 27 30 30 31 31 31 29 30 31 31 30 28 28 29 29 29 29 28 28 28 28 28 28 27 27 27 26 25 25 25 23 23 23 23 24
28 29 29 29 28 28 29 29 27 29 32 31 32 32 31 29 30 32 33 32 31 30 30 31 31 31 31 30 30 30 30 30 29 28 27 27 27 26 26 25 24 24 24 25
29 29 29 29 29 30 31 30 30 31 33 33 33 33 32 31 32 33 33 33 32 32 31 32 32 32 32 33 32 32 31 30 30 30 29 29 29 28 27 27 26 26 26 26
29 30 30 31 31 30 31 33 33 33 34 34 34 34 35 34 35 35 35 34 34 33 32 33 33 33 33 33 33 33 33 32 31 31 31 31 31 30 29 29 28 27 27 27
32 32 33 33 33 33 34 34 34 35 35 35 35 36 36 37 36 36 35 35 35 35 34 34 34 34 34 34 34 34 34 35 34 33 32 32 32 31 30 29 29 29 28 28
32 33 34 34 33 35 37 35 36 36 37 38 37 37 37 38 37 37 37 37 36 36 36 36 35 35 35 35 36 36 35 35 35 34 33 32 32 31 31 29 29 29 30 30
32 33 34 36 34 35 37 36 36 37 38 38 38 38 38 38 37 37 38 37 37 37 37 37 36 37 37 37 36 36 35 34 34 33 33 32 32 32 31 30 30 30 30 31

GEFSCGP_500_meanwind_306.txt.gz
Wind_Speed
7 6 6 6 6 4 5 6 5 5 6 6 6 7 7 8 9 10 11 12 12 12 12 12 12 12 12 11 11 10 10 10 10 10 9 8 7 7 6 6 6 5 5 4
7 6 6 6 5 2 3 3 2 2 4 4 4 5 5 6 6 7 9 10 11 12 12 12 12 12 12 11 11 11 10 10 10 10 9 9 8 8 7 7 6 6 5 4
6 7 6 5 4 3 2 1 2 2 3 3 4 5 4 5 5 6 7 8 10 11 11 12 12 11 12 11 10 10 10 10 10 9 9 9 8 7 7 7 6 6 5 5
7 7 6 5 3 4 4 2 3 3 4 4 3 5 5 6 5 6 7 7 7 9 10 10 11 11 11 11 10 10 9 9 9 9 8 8 8 7 7 6 6 6 6 5
8 8 6 5 4 5 5 3 3 3 4 3 2 4 5 7 7 6 6 7 6 7 8 9 10 10 11 11 10 10 9 9 9 10 9 8 8 8 7 6 6 6 6 6
9 9 7 6 5 5 5 5 4 4 4 3 3 5 6 7 7 6 7 7 7 6 7 8 9 10 10 11 11 10 10 10 10 10 9 9 9 8 7 7 6 6 6 7
9 9 7 7 6 6 7 6 5 4 4 5 4 5 5 6 6 7 7 7 7 8 8 8 9 10 10 11 11 10 11 11 11 10 10 9 8 8 8 7 7 7 8 7
12 10 8 7 7 6 7 7 6 5 5 5 6 5 4 5 6 6 7 8 8 9 9 9 9 9 10 11 11 11 11 11 11 11 10 9 9 8 8 8 8 8 9 8
14 12 11 10 8 8 9 8 7 7 7 7 7 6 6 4 5 6 7 9 10 9 10 11 10 10 10 11 11 11 11 11 11 11 10 10 9 9 8 9 9 9 8 8
14 14 14 12 11 11 10 9 9 9 8 9 8 7 7 7 7 7 8 8 9 10 11 12 11 11 11 11 11 11 11 11 11 11 11 10 10 10 10 9 9 9 9 9
15 15 15 15 14 14 14 14 13 12 12 11 11 9 8 9 9 9 9 9 9 11 12 12 12 12 12 12 13 13 14 13 13 13 12 11 11 10 11 10 10 10 10 10
18 18 17 16 16 16 16 16 15 14 13 14 14 11 10 11 11 12 11 11 11 11 12 12 13 13 13 14 14 15 15 15 15 14 13 12 12 12 11 11 11 11 11 11
20 20 18 17 17 18 18 17 17 15 15 15 15 15 13 13 14 14 15 15 15 13 12 13 14 15 14 15 15 16 16 16 16 15 15 14 14 14 13 13 13 12 12 11
21 20 20 18 17 18 19 19 19 18 17 16 16 17 17 17 17 17 17 18 18 16 15 15 16 16 16 17 17 18 18 18 17 17 16 16 16 16 15 15 14 13 13 12
22 21 21 20 20 20 20 21 21 21 20 20 19 20 21 21 20 20 20 20 20 17 17 18 18 18 18 19 18 19 20 20 20 19 18 18 18 17 17 16 15 15 14 14
24 24 23 22 22 22 22 22 23 23 22 22 21 22 22 23 22 22 22 22 21 20 20 21 20 20 21 21 21 21 22 21 22 21 20 19 20 19 19 18 18 17 17 16
25 25 25 25 24 25 24 22 22 22 23 24 23 23 23 23 23 24 24 24 25 23 23 23 23 22 23 23 23 23 23 23 23 23 22 22 22 21 21 21 21 20 19 18
27 27 27 26 26 27 24 24 24 25 25 25 25 24 24 24 25 25 25 25 24 24 24 25 25 25 25 25 25 24 24 25 25 24 24 24 24 23 23 23 22 22 21 21
28 28 28 28 28 27 26 26 26 27 28 28 27 26 25 25 26 27 27 26 26 27 27 27 27 27 27 27 26 26 26 26 26 26 26 26 26 25 24 25 24 23 23 22
27 28 28 29 29 29 27 27 27 28 29 29 29 29 28 27 28 28 28 28 28 29 29 28 27 28 29 29 28 27 27 28 27 27 27 27 27 26 26 26 26 25 25 24
28 28 29 29 29 29 27 27 28 30 30 29 29 30 30 29 30 29 30 30 31 31 31 30 29 29 29 29 29 29 28 28 29 28 29 29 28 28 27 27 26 25 25 26
28 29 29 30 30 30 27 27 28 30 30 30 31 31 31 30 30 31 31 32 32 32 32 31 30 30 30 30 30 31 30 30 31 31 30 30 30 29 28 28 27 27 27 27
30 31 31 31 31 30 29 29 30 30 30 31 31 31 31 31 32 32 32 32 32 32 32 31 31 31 32 32 32 32 32 31 32 31 30 30 30 30 29 28 28 28 28 28
31 31 32 31 31 30 31 30 30 30 31 32 32 33 32 32 33 33 33 32 32 32 32 32 31 32 33 34 34 34 33 33 32 31 30 30 30 30 30 29 29 28 28 28
30 31 31 31 31 31 31 31 31 31 31 32 33 33 34 33 32 32 32 33 33 32 33 33 32 32 33 33 34 34 34 34 33 32 32 32 31 31 31 30 30 29 28 28
30 31 32 32 32 32 32 32 32 33 33 33 33 34 34 33 32 33 34 34 34 34 34 34 33 33 34 34 34 34 34 34 34 34 34 33 32 31 31 30 29 30 30 29

GEFSCGP_500_meanwind_312.txt.gz
Wind_Speed
6 6 5 5 5 5 5 3 4 5 5 5 4 4 5 6 6 6 6 6 7 7 7 8 9 10 10 9 9 9 10 10 10 9 9 9 8 8 7 7 6 5 5 5
8 6 6 5 5 4 3 2 2 3 3 4 3 3 4 5 5 5 5 6 6 6 6 7 9 9 9 9 9 9 9 9 10 9 9 8 8 8 8 8 6 5 6 5
8 7 7 5 4 3 3 1 1 1 3 2 2 3 3 4 5 5 5 5 5 5 5 6 7 8 9 8 8 8 8 8 9 9 9 9 9 8 8 8 7 7 6 6
10 9 8 6 4 4 3 2 1 1 2 3 2 3 2 4 5 4 5 5 5 5 5 6 6 7 7 8 8 8 7 8 9 9 9 9 9 9 9 9 8 8 7 7
10 9 9 7 6 5 4 3 1 1 2 2 3 3 3 3 5 5 5 5 5 5 6 5 6 6 7 8 7 8 8 7 8 9 10 10 10 10 10 10 9 8 7 7
12 10 9 8 7 6 6 5 4 3 3 3 3 4 3 4 4 5 5 5 5 6 5 5 6 6 6 7 7 7 8 8 8 9 10 10 10 10 10 10 10 9 8 8
12 11 10 9 9 8 8 7 6 5 4 4 3 4 4 4 5 6 6 5 5 5 5 6 6 6 6 7 8 8 9 9 9 9 10 10 10 10 11 11 10 10 10 9
13 12 12 10 10 10 10 9 8 7 7 6 5 5 4 5 6 6 6 5 5 5 6 6 7 7 7 7 8 9 10 9 9 10 11 11 11 11 11 11 11 11 10 10
14 13 13 13 12 12 11 11 10 10 10 10 8 6 5 6 7 6 6 5 6 6 7 7 8 8 8 8 9 9 10 11 11 11 12 12 12 13 12 12 12 12 12 11
16 15 15 14 14 13 13 12 12 12 12 12 10 9 8 7 7 6 5 6 7 7 7 9 10 10 10 10 11 10 11 11 12 13 12 12 12 13 13 13 13 13 12 12
17 17 16 17 17 15 14 14 14 14 14 14 13 11 10 9 8 8 8 8 9 9 10 10 11 11 11 12 13 12 12 12 13 14 14 13 14 14 14 15 15 14 14 14
18 18 18 18 18 17 17 16 15 16 16 16 15 13 12 11 11 11 10 10 10 11 12 12 13 14 14 15 15 14 14 14 15 15 15 15 16 16 16 16 16 16 16 15
19 19 19 19 19 18 18 18 17 17 17 17 17 15 14 14 14 13 13 13 14 14 15 16 17 17 16 16 17 16 16 16 17 17 17 17 17 18 18 18 18 18 18 17
21 21 21 20 19 19 19 19 19 19 18 18 18 17 17 17 16 16 16 15 15 15 16 17 18 18 17 18 18 18 18 18 18 19 20 19 19 20 20 20 20 20 20 19
23 22 22 21 20 20 19 20 20 20 20 19 18 18 18 18 17 17 17 17 17 17 18 19 19 19 19 20 20 21 20 20 20 21 22 22 22 22 22 22 22 21 21 21
25 24 23 22 22 22 21 20 20 21 21 20 19 19 19 18 18 18 18 19 20 20 20 21 21 21 22 22 22 22 22 22 23 23 23 23 23 23 23 23 23 22 22 21
25 25 24 24 23 23 23 21 21 22 22 21 21 20 21 21 21 21 21 21 22 22 23 23 23 23 24 24 24 25 25 25 25 25 25 25 24 24 25 24 24 24 24 23
25 25 25 25 25 27 24 23 23 23 22 23 23 23 24 23 23 22 22 23 23 24 25 25 26 26 25 26 26 27 27 27 27 27 27 26 26 26 26 26 26 26 25 25
27 26 26 27 28 28 26 25 25 25 24 24 25 25 26 25 25 25 25 25 26 26 26 27 28 28 28 28 27 28 28 28 28 28 28 28 28 27 27 27 27 27 27 27
28 28 28 28 28 28 26 25 25 26 26 26 27 28 28 28 27 26 27 28 28 28 27 27 28 28 29 29 29 29 30 30 30 29 29 29 29 28 28 28 28 28 28 28
30 30 30 29 29 29 27 27 27 27 27 27 28 28 28 29 29 28 29 28 29 29 29 29 30 30 30 30 30 30 30 30 30 29 29 29 29 29 29 29 29 29 29 29
31 31 31 30 30 30 28 28 28 28 27 27 27 28 29 29 30 30 30 29 29 30 30 30 30 30 31 31 30 30 31 30 31 30 30 30 30 30 30 30 30 30 29 29
32 31 31 30 30 29 29 29 29 28 28 28 28 28 29 29 29 30 30 30 31 31 30 30 30 31 31 32 32 32 32 31 31 31 31 31 31 31 31 31 31 30 30 30
32 32 31 31 30 29 29 29 29 29 28 28 28 28 28 29 29 30 31 31 31 32 31 31 32 32 32 33 33 33 32 31 31 31 30 30 30 30 30 31 30 30 30 30
32 32 32 31 30 30 29 29 29 29 29 28 28 29 29 30 31 31 31 31 32 33 32 32 32 33 33 33 33 33 33 33 31 30 30 30 30 29 30 30 30 30 31 31
32 32 31 31 30 30 29 29 29 30 30 30 30 30 30 30 31 31 32 32 32 32 32 32 33 33 33 33 32 32 33 33 32 31 30 30 30 29 29 30 29 29 30 31

GEFSCGP_500_meanwind_318.txt.gz
Wind_Speed
7 6 6 5 4 4 3 2 2 2 3 3 3 3 2 2 3 4 5 6 5 5 6 6 6 6 6 7 6 7 7 7 7 8 9 9 9 10 9 9 7 6 5 6
7 6 6 5 3 3 2 3 2 2 2 2 2 2 2 3 3 4 4 5 5 5 5 5 6 6 6 6 6 6 7 7 8 8 9 9 9 10 10 9 9 7 6 6
8 7 7 5 3 2 2 2 1 1 1 1 2 3 3 3 4 4 5 5 6 5 5 5 6 6 7 7 6 6 7 7 7 8 9 9 10 10 10 10 9 9 8 6
9 8 6 5 4 3 3 3 2 1 0 1 1 1 3 3 4 4 5 5 6 6 5 6 6 7 7 7 6 6 7 7 7 8 9 10 10 10 10 10 9 9 9 8
9 8 6 6 6 5 4 4 3 2 1 1 1 1 3 4 4 4 5 6 5 5 6 6 6 6 7 8 7 6 7 7 8 8 9 10 10 10 10 10 10 10 9 9
11 9 8 6 6 6 4 4 3 3 2 3 3 2 4 5 5 5 5 6 6 6 6 6 6 6 7 7 8 8 9 8 8 9 9 10 10 11 11 11 10 10 10 9
12 11 10 9 7 7 5 3 3 3 4 5 5 4 5 5 6 6 6 6 7 7 7 7 7 7 8 8 8 8 10 9 9 10 10 11 11 11 11 11 11 10 10 10
14 13 12 11 9 8 7 6 5 5 5 6 6 6 6 7 7 6 6 7 7 7 7 8 8 8 9 9 9 10 10 11 11 11 11 12 12 12 12 12 12 12 12 12
14 15 14 12 11 11 10 9 8 8 8 7 8 8 8 9 9 9 8 8 8 7 7 8 9 9 10 11 11 12 12 12 13 12 13 13 14 14 13 13 13 14 13 13
16 16 15 14 13 13 12 11 11 9 9 9 9 9 10 10 10 10 9 9 8 8 8 8 9 10 11 12 13 13 13 14 14 14 15 15 15 15 15 14 14 15 15 14
17 16 16 16 15 14 14 14 13 11 10 8 9 10 12 11 11 11 10 10 10 10 10 10 11 12 12 13 14 14 15 15 15 16 17 17 16 16 16 16 16 16 16 15
17 17 17 17 16 16 15 14 14 13 13 11 11 13 13 13 12 12 12 12 12 13 12 12 13 13 14 15 15 16 16 16 16 17 17 18 17 17 17 18 18 18 17 17
18 17 17 17 17 18 17 16 15 14 13 13 12 13 14 14 14 13 14 14 14 14 14 14 14 15 15 16 17 17 17 17 18 18 18 18 18 19 19 20 20 20 20 19
19 19 18 17 17 18 18 16 16 16 15 15 15 15 15 15 15 15 15 15 16 16 16 16 17 17 17 18 19 19 18 19 19 19 20 20 20 21 21 22 22 22 22 21
21 21 20 19 19 19 18 17 17 17 17 16 17 16 16 17 17 17 17 17 17 18 19 19 19 19 19 20 20 20 20 20 20 21 22 22 22 23 23 23 24 24 24 23
23 22 22 21 20 20 19 19 18 18 19 19 19 18 18 19 19 19 19 19 19 20 20 20 21 21 21 21 21 21 22 22 22 23 23 24 24 24 24 25 25 25 25 25
24 23 22 22 22 22 21 20 20 20 20 20 20 20 20 21 21 21 21 21 21 21 21 22 22 23 23 23 24 24 24 24 25 26 26 26 26 27 27 26 26 26 26 26
25 24 23 23 23 23 22 23 22 22 21 21 22 23 22 23 23 22 23 22 22 22 23 24 24 24 25 26 27 27 27 28 28 28 28 27 27 28 28 27 27 27 26 27
26 25 24 23 24 25 24 23 23 23 23 23 23 24 24 24 24 24 24 25 25 25 25 26 27 27 27 28 29 30 30 29 29 29 29 28 28 28 28 28 28 27 27 27
26 26 26 26 25 25 25 24 23 24 24 24 24 24 25 24 25 25 25 26 27 27 28 29 29 29 29 30 31 31 30 29 29 29 30 29 29 29 29 29 28 28 28 28
27 27 27 27 26 26 26 25 24 24 25 25 25 25 25 26 26 26 27 27 28 29 29 30 30 30 30 30 30 30 30 29 29 29 30 30 30 29 29 29 29 28 28 28
28 28 27 27 26 26 27 25 25 25 25 25 25 26 26 27 27 27 27 28 28 29 29 30 30 30 30 30 30 30 29 29 30 30 30 31 31 30 30 30 30 30 29 28
28 28 27 27 27 27 27 26 26 26 25 26 26 26 27 26 26 27 27 27 28 29 30 30 30 29 29 30 30 31 30 30 30 30 30 30 30 30 30 30 30 30 30 29
28 28 27 27 27 26 26 26 26 26 26 26 26 26 26 27 27 27 28 28 28 29 30 30 30 29 30 31 31 31 31 30 31 31 30 30 30 30 30 30 30 29 29 30
29 28 28 28 28 27 26 26 27 26 26 26 26 26 26 26 26 27 28 29 29 30 30 30 30 30 30 30 31 31 31 31 31 31 31 31 30 30 30 30 30 30 30 30
30 29 29 29 28 27 27 27 27 27 27 27 27 27 27 27 26 27 28 28 29 29 30 30 30 30 30 30 30 30 31 31 31 31 31 31 31 30 30 30 31 30 31 31